Torna al catalogo

DMSP 5D-2 F11 DEB

AttivoPO
NORAD 28325·DEBRIS·🇺🇸 United States

Lanciato Nov 28, 1991 da Vandenberg Space Force Base

Loading…

Prossimi Passaggi (prossime 24 ore)

TLE

AggiornatoSource: Space-Track

Epoca: Sep 14, 2026, 16:15 UTC

1 28325U 91082AN  26257.67772581  .00030749  00000-0  31467-2 0  9991
2 28325  98.5591 155.0880 0019477 188.2007 201.7419 14.90313657156162

Traccia DMSP 5D-2 F11 DEB in tempo reale con AllMySat

Download on the App Store